Regional Weather Roundup
Issued by NWS

Home | Current Version | Previous Version | Text Only | Print | Product List | Glossary On
Versions: 1 2 3 4 5 6 7 8 9 10 11 12 13 14 15 16 17 18 19 20 21 22 23 24 25 26 27 28 29 30 31 32 33 34 35 36 37 38 39 40 41 42 43 44 45 46 47 48 49 50
000
ASUS46 KLOX 281212
RWRCA

SOUTHERN CALIFORNIA WEATHER ROUNDUP
NATIONAL WEATHER SERVICE OXNARD CALIFORNIA
400 AM PST WED JAN 28 2015

NOTE: "FAIR" INDICATES FEW OR NO CLOUDS BELOW 12,000 FEET WITH NO
SIGNIFICANT WEATHER AND/OR OBSTRUCTIONS TO VISIBILITY.

  -  STATIONS PRECEEDED BY AN ASTERISK (*) ARE NOT NWS OR FAA
     STATIONS AND ARE NOT SUBJECT TO NWS AND FAA QUALITY CONTROL.

CAZ041-042-087-281300-
LA AND ORANGE COUNTY COASTAL AREAS


CITY           SKY/WX    TMP DP  RH WIND       PRES   REMARKS
L.A. DOWNTOWN  MOCLDY    58  47  66 N3        30.14F
L.A. AIRPORT   CLOUDY    58  48  69 N7        30.14F
LONG BEACH     MOCLDY    55  50  83 NW5       30.14F

CITY           SKY/WX    TMP DP  RH WIND       PRES   REMARKS
AVALON           N/A     52 N/A N/A MISG        N/A
FULLERTON      MOCLDY    53  48  83 CALM      30.13F
*GETTY CENTER    N/A    N/A N/A N/A N12         N/A
HAWTHORNE      CLOUDY    58  48  69 CALM      30.14F
*LOS ALAMITOS  CLOUDY    51  50  95 NW3       30.13F
*REDONDO BEACH   N/A     53  49  89 CALM      30.15F
SANTA ANA      MOCLDY    56  48  74 CALM      30.12F
STA MONICA APT CLOUDY    59  47  64 N3        30.15F
*UCLA            N/A     59  46  63 N12       30.11F

$$

CAZ547-548-048-281300-
LA COUNTY VALLEYS AND INLAND EMPIRE


CITY           SKY/WX    TMP DP  RH WIND       PRES   REMARKS
BURBANK        MOCLDY    55  42  61 N3        30.15F
VAN NUYS       CLOUDY    53  47  79 CALM      30.16F

CITY           SKY/WX    TMP DP  RH WIND       PRES   REMARKS
CORONA AIRPORT MOSUNNY   47  47 100 CALM      30.16F
CHINO          PTCLDY    50  47  89 CALM      30.17F
*CLAREMONT       N/A     49  44  84 CALM        N/A
MARCH AFB      PTCLDY    42  42 100 W3        30.16F
*NORTHRIDGE      N/A     50  45  81 CALM        N/A
ONTARIO        MOCLDY    53  47  79 E3        30.15F
*PASADENA        N/A     55  46  71 CALM        N/A
RIVERSIDE      PTCLDY    52  46  80 NE3       30.16F
SAN BERNARDINO NOT AVBL
*WHITEMAN AP   NOT AVBL
*WOODLAND HILL   N/A     48  46  93 SE1         N/A

$$

CAZ054-055-281300-
LA AND SAN BERNARDINO COUNTY MOUNTAINS


CITY           SKY/WX    TMP DP  RH WIND       PRES   REMARKS
*ACTON           N/A     50  45  84 N10         N/A
*BIG BEAR AIRP MOSUNNY   23  21  93 CALM      30.28F
*BIG PINES       N/A     34  15  45 CALM        N/A
*CHILAO          N/A     46   9  22 N2          N/A
MT WILSON NWS    N/A     43  28  56 NE8         N/A
SANDBERG       FOG       46  42  86 NE12      30.24F VSB 3/4
*WARM SPRINGS    N/A     45  45 100 NE14        N/A

$$

CAZ028-029-059-060-099-281300-
ANTELOPE VALLEY AND SURROUNDING AREAS


CITY           SKY/WX    TMP DP  RH WIND       PRES   REMARKS
LANCASTER      CLOUDY    43  41  93 CALM      30.25S
PALMDALE       MOCLDY    42  40  92 CALM      30.25S

CITY           SKY/WX    TMP DP  RH WIND       PRES   REMARKS
29 PALMS       CLEAR     44  43  96 N3        30.29S
BARSTOW/DAGGET CLEAR     46  43  89 SW3       30.24S
BISHOP         PTCLDY    37  35  92 CALM      30.28S
CHINA LAKE     CLOUDY    43  42  97 S8        30.25F
EDWARDS AFB    MOCLDY    41  41 100 SE1       30.23S
MOJAVE         FAIR      43  43 100 NW6       30.25S
NEEDLES        CLEAR     52  48  86 W7        30.20F
VICTORVILLE      N/A     41  39  93 CALM      30.24S FOG

$$

CAZ039-040-281300-
VENTURA AND SANTA BARBARA COUNTY COAST


CITY           SKY/WX    TMP DP  RH WIND       PRES   REMARKS
CAMARILLO      CLOUDY    53  48  83 CALM      30.14F
NWS OXNARD       N/A     54  48  80 CALM      30.14F
OXNARD AIRPORT CLOUDY    58  47  66 NE7       30.14F
*POINT MUGU    CLOUDY    56  50  80 N5        30.15F
SBA APT/GOLETA CLOUDY    51  48  89 CALM      30.14F
*SANTA BARBARA   N/A     54  48  82 CALM      30.22F
*VENTURA         N/A     57  47  70 CALM      30.17F

$$

CAZ044-045-281300-
VENTURA COUNTY VALLEYS


CITY           SKY/WX    TMP DP  RH WIND       PRES   REMARKS
*SIMI VALLEY     N/A     59  49  68 NE7       30.11F
*OJAI            N/A     46  44  93 CALM      30.12F

$$

CAZ053-281300-
VENTURA COUNTY MOUNTAINS


CITY           SKY/WX    TMP DP  RH WIND       PRES   REMARKS
*LOCKWOOD VLY    N/A     30  30 100 MISG        N/A
*ROSE VALLEY     N/A     36  36 100 MISG        N/A

$$

CAZ034-035-036-281300-
CENTRAL COAST AND SANTA YNEZ VALLEY


CITY           SKY/WX    TMP DP  RH WIND       PRES   REMARKS
SAN LUIS OBISP CLEAR     48  45  89 SE5       30.18F
SANTA MARIA    FOG       51  49  92 CALM      30.18F VSB 1/4

CITY           SKY/WX    TMP DP  RH WIND       PRES   REMARKS
*CAL POLY SLO    N/A     59  50  72 VRB9        N/A
*LOMPOC        CLOUDY    48  45  87 NE3       30.17F
*PISMO BEACH     N/A     51  48  87 N6        30.17F
*SANTA YNEZ    FAIR      46  45  93 CALM      30.17F

$$

CAZ037-038-051-281300-
SAN LUIS OBISPO COUNTY INTERIOR AND CUYAMA VALLEY


CITY           SKY/WX    TMP DP  RH WIND       PRES   REMARKS
*CUYAMA          N/A     50  47  89 CALM      30.20F
PASO ROBLES    CLEAR     42  40  92 N3        30.24F

$$

CAZ032-033-061-281300-
SOUTHERN DESERTS


CITY           SKY/WX    TMP DP  RH WIND       PRES   REMARKS
BLYTHE         PTCLDY    52  52 100 N6        30.17S FOG
IMPERIAL       PTCLDY    48  47  96 W5        30.15F
PALM SPRINGS   PTCLDY    54  47  77 N7        30.18F
THERMAL        PTCLDY    52  49  89 N3        30.15F

$$

ELSEWHERE ACROSS THE WESTERN UNITED STATES AND MEXICO


CITY           SKY/WX    TMP DP  RH WIND       PRES   REMARKS
DENVER, CO     CLOUDY    48  23  37 W14       29.99S
GRAND CANYON,  CLOUDY    27  26  96 CALM      30.31R
HONOLULU, HI   CLEAR     72  63  73 N3        29.92F
KAHULUI, MAUI  PTCLDY    64  61  88 S5        29.93S
LAKE TAHOE, CA PTCLDY    28  23  81 S6        30.31R WCI  22
LAS VEGAS, NV  MOCLDY    49  44  83 W3        30.21S
MAMMOTH LAKES, FAIR      28  25  86 CALM      30.32R
MEXICO CITY, M CLEAR     46  34  61 NE3       30.38S
PHOENIX, AZ    PTCLDY    56  50  80 N3        30.15S
PORTLAND, OR   DRIZZLE   47  47 100 W5        30.32S FOG
RENO, NV       PTCLDY    31  27  85 CALM      30.31S
SALT LAKE CITY CLOUDY    42  37  82 S3        30.21R
SAN DIEGO, CA  MOCLDY    57  48  72 N6        30.12F
SAN FRANCISCO, CLEAR     51  49  92 CALM      30.25F
SAN JOSE, CA   CLEAR     46  42  86 CALM      30.25F
SEATTLE, WA    CLOUDY    46  44  93 N5        30.34R
TIJUANA, MEX   CLEAR     50  43  76 CALM      30.12F

$$

STATION/POSITION TIME  TEMP    WIND        PRES    VSBY  WAVE
                       AIR SEA DIR/SP/G                  HT/PER
                 (UTC) (F)     (DEG/KT/KT) (MB)    (MI)  (FT/S)
POINT ARGUELLO B NOT AVBL
WEST SANTA BARBA 1200   60 60   40/  4/  6 1020.4F         7/15
POINT CONCEPTION NOT AVBL
EAST SANTA BARBA NOT AVBL
SANTA MONICA BAY 1200   60 62  320/ 10/ 12 1021.0F         4/15


USA.gov is the U.S. government's official web portal to all federal, state and local government web resources and services.